Time,TemperatureF,DewpointF,PressureIn,WindDirection,WindDirectionDegrees,WindSpeedMPH,WindSpeedGustMPH,Humidity,HourlyPrecipIn,Conditions,Clouds,dailyrainin,SoftwareType,DateUTC
2013-09-24 00:01:00,-999.0,-99.9,29.80,North,0,0.0,0.0,-999,0.00,,,0.00,meteobridge,2013-09-23 21:01:00,
2013-09-24 00:06:00,-999.0,-99.9,29.80,North,0,1.1,1.1,-999,0.00,,,0.00,meteobridge,2013-09-23 21:06:00,
2013-09-24 00:11:00,-999.0,-99.9,29.80,North,0,0.0,0.0,-999,0.00,,,0.00,meteobridge,2013-09-23 21:11:00,
2013-09-24 00:16:00,-999.0,-99.9,29.80,North,0,0.0,0.0,-999,0.00,,,0.00,meteobridge,2013-09-23 21:16:00,
2013-09-24 00:21:00,-999.0,-99.9,29.80,North,0,0.0,0.0,-999,0.00,,,0.00,meteobridge,2013-09-23 21:21:00,
2013-09-24 00:26:00,-999.0,-99.9,29.80,North,0,0.9,1.3,-999,0.00,,,0.00,meteobridge,2013-09-23 21:26:00,
2013-09-24 00:31:00,-999.0,-99.9,29.77,North,0,0.0,0.0,-999,0.00,,,0.00,meteobridge,2013-09-23 21:31:00,
2013-09-24 00:37:00,-999.0,-99.9,29.77,North,0,0.0,0.0,-999,0.00,,,0.00,meteobridge,2013-09-23 21:37:00,
2013-09-24 00:42:00,-999.0,-99.9,29.77,North,0,0.0,0.0,-999,0.00,,,0.00,meteobridge,2013-09-23 21:42:00,
2013-09-24 00:47:00,-999.0,-99.9,29.77,North,0,0.0,0.0,-999,0.00,,,0.00,meteobridge,2013-09-23 21:47:00,
2013-09-24 00:53:00,-999.0,-99.9,29.77,North,0,0.0,0.0,-999,0.00,,,0.00,meteobridge,2013-09-23 21:53:00,
2013-09-24 00:58:00,-999.0,-99.9,29.77,North,0,0.0,0.0,-999,0.00,,,0.00,meteobridge,2013-09-23 21:58:00,
2013-09-24 01:03:00,-999.0,-99.9,29.77,North,0,0.0,0.9,-999,0.00,,,0.00,meteobridge,2013-09-23 22:03:00,
2013-09-24 01:09:00,-999.0,-99.9,29.77,North,0,0.0,0.0,-999,0.00,,,0.00,meteobridge,2013-09-23 22:09:00,
2013-09-24 01:14:00,-999.0,-99.9,29.74,North,0,0.0,0.0,-999,0.00,,,0.00,meteobridge,2013-09-23 22:14:00,
2013-09-24 01:19:00,-999.0,-99.9,29.74,North,0,0.0,0.0,-999,0.00,,,0.00,meteobridge,2013-09-23 22:19:00,
2013-09-24 01:24:00,-999.0,-99.9,29.74,North,0,0.0,0.0,-999,0.00,,,0.00,meteobridge,2013-09-23 22:24:00,
2013-09-24 01:29:00,-999.0,-99.9,29.74,North,0,0.0,0.0,-999,0.00,,,0.00,meteobridge,2013-09-23 22:29:00,
2013-09-24 01:34:00,-999.0,-99.9,29.74,North,0,0.0,0.0,-999,0.00,,,0.00,meteobridge,2013-09-23 22:34:00,
2013-09-24 01:39:00,-999.0,-99.9,29.74,NNE,22,0.0,0.0,-999,0.00,,,0.00,meteobridge,2013-09-23 22:39:00,
2013-09-24 01:46:00,-999.0,-99.9,29.77,NNE,22,0.0,0.0,-999,0.00,,,0.00,meteobridge,2013-09-23 22:46:00,
2013-09-24 01:51:00,-999.0,-99.9,29.77,NNE,22,0.0,0.0,-999,0.00,,,0.00,meteobridge,2013-09-23 22:51:00,
2013-09-24 01:56:00,-999.0,-99.9,29.77,NNE,22,0.0,0.0,-999,0.00,,,0.00,meteobridge,2013-09-23 22:56:00,
2013-09-24 02:01:00,-999.0,-99.9,29.77,NNE,22,0.0,0.0,-999,0.00,,,0.00,meteobridge,2013-09-23 23:01:00,
2013-09-24 02:06:00,-999.0,-99.9,29.77,NNE,22,1.3,1.3,-999,0.00,,,0.00,meteobridge,2013-09-23 23:06:00,
2013-09-24 02:11:00,-999.0,-99.9,29.77,NNE,22,0.0,0.9,-999,0.00,,,0.00,meteobridge,2013-09-23 23:11:00,
2013-09-24 02:16:00,-999.0,-99.9,29.77,NNE,22,0.0,0.0,-999,0.00,,,0.00,meteobridge,2013-09-23 23:16:00,
2013-09-24 02:21:00,-999.0,-99.9,29.77,NNE,22,0.0,0.0,-999,0.00,,,0.00,meteobridge,2013-09-23 23:21:00,
2013-09-24 02:26:00,-999.0,-99.9,29.77,NNE,22,0.0,0.0,-999,0.00,,,0.00,meteobridge,2013-09-23 23:26:00,
2013-09-24 02:31:00,-999.0,-99.9,29.77,NNE,22,0.0,0.0,-999,0.00,,,0.00,meteobridge,2013-09-23 23:31:00,
2013-09-24 02:36:00,-999.0,-99.9,29.77,NNE,22,0.0,0.0,-999,0.00,,,0.00,meteobridge,2013-09-23 23:36:00,
2013-09-24 02:41:00,-999.0,-99.9,29.77,NNE,22,0.0,0.0,-999,0.00,,,0.00,meteobridge,2013-09-23 23:41:00,
2013-09-24 02:46:00,-999.0,-99.9,29.77,NNE,22,0.9,0.9,-999,0.00,,,0.00,meteobridge,2013-09-23 23:46:00,
2013-09-24 02:51:00,-999.0,-99.9,29.77,NNE,22,0.0,0.0,-999,0.00,,,0.00,meteobridge,2013-09-23 23:51:00,
2013-09-24 02:56:00,-999.0,-99.9,29.77,NNE,22,0.0,1.3,-999,0.00,,,0.00,meteobridge,2013-09-23 23:56:00,
2013-09-24 03:01:00,-999.0,-99.9,29.77,NNE,22,0.0,0.0,-999,0.00,,,0.00,meteobridge,2013-09-24 00:01:00,
2013-09-24 03:06:00,-999.0,-99.9,29.77,NNE,22,0.0,0.0,-999,0.00,,,0.00,meteobridge,2013-09-24 00:06:00,
2013-09-24 03:11:00,-999.0,-99.9,29.77,NNE,22,0.0,0.0,-999,0.00,,,0.00,meteobridge,2013-09-24 00:11:00,
2013-09-24 03:16:00,-999.0,-99.9,29.77,NNE,22,0.0,0.0,-999,0.00,,,0.00,meteobridge,2013-09-24 00:16:00,
2013-09-24 03:21:00,-999.0,-99.9,29.77,NNE,22,0.0,1.1,-999,0.00,,,0.00,meteobridge,2013-09-24 00:21:00,
2013-09-24 03:26:00,-999.0,-99.9,29.77,NNE,22,1.1,1.1,-999,0.00,,,0.00,meteobridge,2013-09-24 00:26:00,
2013-09-24 03:31:00,-999.0,-99.9,29.74,NE,45,1.1,1.1,-999,0.00,,,0.00,meteobridge,2013-09-24 00:31:00,
2013-09-24 03:36:00,-999.0,-99.9,29.74,NE,45,1.3,1.3,-999,0.00,,,0.00,meteobridge,2013-09-24 00:36:00,
2013-09-24 03:41:00,-999.0,-99.9,29.74,NNE,22,1.3,1.3,-999,0.00,,,0.00,meteobridge,2013-09-24 00:41:00,
2013-09-24 03:47:00,-999.0,-99.9,29.74,ENE,68,1.3,1.3,-999,0.00,,,0.00,meteobridge,2013-09-24 00:47:00,
2013-09-24 03:52:00,-999.0,-99.9,29.74,NE,45,1.3,1.3,-999,0.00,,,0.00,meteobridge,2013-09-24 00:52:00,
2013-09-24 03:57:00,-999.0,-99.9,29.74,ENE,68,0.0,0.0,-999,0.00,,,0.00,meteobridge,2013-09-24 00:57:00,
2013-09-24 04:02:00,-999.0,-99.9,29.74,ENE,68,0.0,0.0,-999,0.00,,,0.00,meteobridge,2013-09-24 01:02:00,
2013-09-24 04:07:00,-999.0,-99.9,29.74,NNE,22,2.0,2.2,-999,0.00,,,0.00,meteobridge,2013-09-24 01:07:00,
2013-09-24 04:12:00,-999.0,-99.9,29.74,North,0,0.0,0.0,-999,0.00,,,0.00,meteobridge,2013-09-24 01:12:00,
2013-09-24 04:17:00,-999.0,-99.9,29.74,NE,45,0.0,0.0,-999,0.00,,,0.00,meteobridge,2013-09-24 01:17:00,
2013-09-24 04:22:00,-999.0,-99.9,29.74,NNE,22,0.0,0.0,-999,0.00,,,0.00,meteobridge,2013-09-24 01:22:00,
2013-09-24 04:27:00,-999.0,-99.9,29.74,NNE,22,0.0,0.0,-999,0.00,,,0.00,meteobridge,2013-09-24 01:27:00,
2013-09-24 04:32:00,-999.0,-99.9,29.74,NNE,22,0.0,0.0,-999,0.00,,,0.00,meteobridge,2013-09-24 01:32:00,
2013-09-24 04:37:00,-999.0,-99.9,29.74,NNE,22,0.0,0.0,-999,0.00,,,0.00,meteobridge,2013-09-24 01:37:00,
2013-09-24 04:42:00,-999.0,-99.9,29.74,NNE,22,0.0,0.0,-999,0.00,,,0.00,meteobridge,2013-09-24 01:42:00,
2013-09-24 04:47:00,-999.0,-99.9,29.74,NNE,22,0.0,0.0,-999,0.00,,,0.00,meteobridge,2013-09-24 01:47:00,
2013-09-24 04:52:00,-999.0,-99.9,29.74,NNE,22,0.0,0.0,-999,0.00,,,0.00,meteobridge,2013-09-24 01:52:00,
2013-09-24 04:58:00,-999.0,-99.9,29.74,NNE,22,0.0,0.0,-999,0.00,,,0.00,meteobridge,2013-09-24 01:58:00,
2013-09-24 05:03:00,-999.0,-99.9,29.74,NNE,22,0.0,0.0,-999,0.00,,,0.00,meteobridge,2013-09-24 02:03:00,
2013-09-24 05:08:00,-999.0,-99.9,29.74,NNE,22,0.0,0.0,-999,0.00,,,0.00,meteobridge,2013-09-24 02:08:00,
2013-09-24 05:13:00,-999.0,-99.9,29.74,NNE,22,0.0,0.0,-999,0.00,,,0.00,meteobridge,2013-09-24 02:13:00,
2013-09-24 05:18:00,-999.0,-99.9,29.74,NNE,22,0.0,0.0,-999,0.00,,,0.00,meteobridge,2013-09-24 02:18:00,
2013-09-24 05:23:00,-999.0,-99.9,29.74,NNE,22,0.0,1.3,-999,0.00,,,0.00,meteobridge,2013-09-24 02:23:00,
2013-09-24 05:28:00,-999.0,-99.9,29.74,NNE,22,2.5,2.5,-999,0.00,,,0.00,meteobridge,2013-09-24 02:28:00,
2013-09-24 05:33:00,-999.0,-99.9,29.74,NNE,22,0.0,0.0,-999,0.00,,,0.00,meteobridge,2013-09-24 02:33:00,
2013-09-24 05:38:00,-999.0,-99.9,29.74,NNE,22,1.3,2.2,-999,0.00,,,0.00,meteobridge,2013-09-24 02:38:00,
2013-09-24 05:43:00,-999.0,-99.9,29.74,ENE,68,0.0,0.0,-999,0.00,,,0.00,meteobridge,2013-09-24 02:43:00,
2013-09-24 05:48:00,-999.0,-99.9,29.74,East,90,1.3,2.2,-999,0.00,,,0.00,meteobridge,2013-09-24 02:48:00,
2013-09-24 05:53:00,-999.0,-99.9,29.74,NNE,22,2.0,2.0,-999,0.00,,,0.00,meteobridge,2013-09-24 02:53:00,
2013-09-24 05:58:00,-999.0,-99.9,29.74,NNE,22,0.0,0.0,-999,0.00,,,0.00,meteobridge,2013-09-24 02:58:00,
2013-09-24 06:03:00,-999.0,-99.9,29.74,North,0,0.9,2.2,-999,0.00,,,0.00,meteobridge,2013-09-24 03:03:00,
2013-09-24 06:08:00,-999.0,-99.9,29.74,North,0,0.0,0.0,-999,0.00,,,0.00,meteobridge,2013-09-24 03:08:00,
2013-09-24 06:13:00,-999.0,-99.9,29.74,North,0,0.0,0.0,-999,0.00,,,0.00,meteobridge,2013-09-24 03:13:00,
2013-09-24 06:18:00,-999.0,-99.9,29.74,NNE,22,0.0,1.1,-999,0.00,,,0.00,meteobridge,2013-09-24 03:18:00,
2013-09-24 06:23:00,-999.0,-99.9,29.74,NE,45,0.0,0.0,-999,0.00,,,0.00,meteobridge,2013-09-24 03:23:00,
2013-09-24 06:29:00,-999.0,-99.9,29.74,NNE,22,0.0,0.0,-999,0.00,,,0.00,meteobridge,2013-09-24 03:29:00,
2013-09-24 06:34:00,-999.0,-99.9,29.74,NNE,22,0.0,0.0,-999,0.00,,,0.00,meteobridge,2013-09-24 03:34:00,
2013-09-24 06:39:00,-999.0,-99.9,29.74,NNE,22,0.0,0.0,-999,0.00,,,0.00,meteobridge,2013-09-24 03:39:00,
2013-09-24 06:44:00,-999.0,-99.9,29.74,NNE,22,0.0,0.0,-999,0.00,,,0.00,meteobridge,2013-09-24 03:44:00,
2013-09-24 06:49:00,-999.0,-99.9,29.74,NNE,22,0.0,0.0,-999,0.00,,,0.00,meteobridge,2013-09-24 03:49:00,
2013-09-24 06:55:00,-999.0,-99.9,29.74,NNE,22,0.0,0.0,-999,0.00,,,0.00,meteobridge,2013-09-24 03:55:00,
2013-09-24 07:00:00,-999.0,-99.9,29.74,NNE,22,0.0,0.0,-999,0.00,,,0.00,meteobridge,2013-09-24 04:00:00,
2013-09-24 07:01:00,-999.0,-99.9,29.74,NNE,22,0.0,0.0,-999,0.00,,,0.00,meteobridge,2013-09-24 04:01:00,
2013-09-24 07:02:00,-999.0,-99.9,29.74,NNE,22,0.0,0.0,-999,0.00,,,0.00,meteobridge,2013-09-24 04:02:00,
2013-09-24 07:06:00,-999.0,-99.9,29.74,NNE,22,1.3,2.0,-999,0.00,,,0.00,meteobridge,2013-09-24 04:06:00,
2013-09-24 08:39:00,-999.0,-99.9,29.77,NE,45,2.5,3.1,-999,0.00,,,0.00,meteobridge,2013-09-24 05:39:00,
2013-09-24 08:44:00,-999.0,-99.9,29.77,ENE,68,1.3,2.5,-999,0.00,,,0.00,meteobridge,2013-09-24 05:44:00,
2013-09-24 08:49:00,-999.0,-99.9,29.77,North,0,2.5,3.1,-999,0.00,,,0.00,meteobridge,2013-09-24 05:49:00,
2013-09-24 08:54:00,-999.0,-99.9,29.77,ENE,68,1.1,3.4,-999,0.00,,,0.00,meteobridge,2013-09-24 05:54:00,
2013-09-24 08:59:00,-999.0,-99.9,29.77,NNE,22,3.4,3.8,-999,0.00,,,0.00,meteobridge,2013-09-24 05:59:00,
2013-09-24 09:04:00,-999.0,-99.9,29.77,NNE,22,3.4,3.4,-999,0.00,,,0.00,meteobridge,2013-09-24 06:04:00,
2013-09-24 09:10:00,-999.0,-99.9,29.77,ENE,68,1.6,2.2,-999,0.00,,,0.00,meteobridge,2013-09-24 06:10:00,
2013-09-24 09:15:00,-999.0,-99.9,29.77,East,90,1.1,4.0,-999,0.00,,,0.00,meteobridge,2013-09-24 06:15:00,
2013-09-24 09:20:00,-999.0,-99.9,29.77,NNE,22,2.0,4.9,-999,0.00,,,0.00,meteobridge,2013-09-24 06:20:00,
2013-09-24 09:25:00,-999.0,-99.9,29.77,NNE,22,3.6,3.6,-999,0.00,,,0.00,meteobridge,2013-09-24 06:25:00,
2013-09-24 09:30:00,-999.0,-99.9,29.77,NNE,22,1.3,2.9,-999,0.00,,,0.00,meteobridge,2013-09-24 06:30:00,
2013-09-24 09:35:00,-999.0,-99.9,29.77,North,0,2.5,2.9,-999,0.00,,,0.00,meteobridge,2013-09-24 06:35:00,
2013-09-24 09:40:00,-999.0,-99.9,29.77,NNE,22,2.2,2.5,-999,0.00,,,0.00,meteobridge,2013-09-24 06:40:00,
2013-09-24 09:45:00,-999.0,-99.9,29.77,ESE,112,1.3,2.0,-999,0.00,,,0.00,meteobridge,2013-09-24 06:45:00,
2013-09-24 09:50:00,-999.0,-99.9,29.77,North,0,3.1,3.1,-999,0.00,,,0.00,meteobridge,2013-09-24 06:50:00,
2013-09-24 09:55:00,-999.0,-99.9,29.77,South,180,0.9,2.9,-999,0.00,,,0.00,meteobridge,2013-09-24 06:55:00,
2013-09-24 10:00:00,-999.0,-99.9,29.77,ESE,112,1.1,2.2,-999,0.00,,,0.00,meteobridge,2013-09-24 07:00:00,
2013-09-24 10:06:00,-999.0,-99.9,29.77,ESE,112,2.9,2.9,-999,0.00,,,0.00,meteobridge,2013-09-24 07:06:00,
2013-09-24 10:11:00,-999.0,-99.9,29.77,SE,135,1.3,3.8,-999,0.00,,,0.00,meteobridge,2013-09-24 07:11:00,
2013-09-24 10:16:00,-999.0,-99.9,29.77,East,90,0.9,0.9,-999,0.00,,,0.00,meteobridge,2013-09-24 07:16:00,
2013-09-24 10:21:00,-999.0,-99.9,29.77,SSE,158,3.1,3.1,-999,0.00,,,0.00,meteobridge,2013-09-24 07:21:00,
2013-09-24 10:27:00,-999.0,-99.9,29.77,East,90,1.3,1.3,-999,0.00,,,0.00,meteobridge,2013-09-24 07:27:00,
2013-09-24 10:32:00,82.2,33.1,29.77,NNE,22,1.6,2.5,17,0.00,,,0.00,meteobridge,2013-09-24 07:32:00,
2013-09-24 10:37:00,81.7,32.7,29.77,ENE,68,1.6,2.0,17,0.00,,,0.00,meteobridge,2013-09-24 07:37:00,
2013-09-24 10:42:00,-999.0,-99.9,29.77,East,90,2.5,2.5,-999,0.00,,,0.00,meteobridge,2013-09-24 07:42:00,
2013-09-24 10:47:00,-999.0,-99.9,29.77,NNE,22,2.0,3.6,-999,0.00,,,0.00,meteobridge,2013-09-24 07:47:00,
2013-09-24 10:52:00,-999.0,-99.9,29.77,NNE,22,0.0,2.2,-999,0.00,,,0.00,meteobridge,2013-09-24 07:52:00,
2013-09-24 10:57:00,-999.0,-99.9,29.77,SSE,158,0.9,1.3,-999,0.00,,,0.00,meteobridge,2013-09-24 07:57:00,
2013-09-24 11:02:00,83.5,29.3,29.77,ESE,112,1.3,2.2,14,0.00,,,0.00,meteobridge,2013-09-24 08:02:00,
2013-09-24 11:07:00,-999.0,-99.9,29.77,North,0,1.1,2.7,-999,0.00,,,0.00,meteobridge,2013-09-24 08:07:00,
2013-09-24 11:12:00,-999.0,-99.9,29.77,NNE,22,2.0,2.7,-999,0.00,,,0.00,meteobridge,2013-09-24 08:12:00,
2013-09-24 11:17:00,83.5,29.3,29.80,North,0,0.9,2.0,14,0.00,,,0.00,meteobridge,2013-09-24 08:17:00,
2013-09-24 11:22:00,83.7,29.5,29.80,NNW,338,4.3,4.3,14,0.00,,,0.00,meteobridge,2013-09-24 08:22:00,
2013-09-24 11:27:00,-999.0,-99.9,29.80,NW,315,0.9,2.5,-999,0.00,,,0.00,meteobridge,2013-09-24 08:27:00,
2013-09-24 11:32:00,-999.0,-99.9,29.80,SE,135,2.0,2.9,-999,0.00,,,0.00,meteobridge,2013-09-24 08:32:00,
2013-09-24 11:37:00,-999.0,-99.9,29.80,NNE,22,1.6,1.6,-999,0.00,,,0.00,meteobridge,2013-09-24 08:37:00,
2013-09-24 11:42:00,-999.0,-99.9,29.80,SE,135,3.1,3.8,-999,0.00,,,0.00,meteobridge,2013-09-24 08:42:00,
2013-09-24 11:48:00,-999.0,-99.9,29.80,SE,135,1.6,1.6,-999,0.00,,,0.00,meteobridge,2013-09-24 08:48:00,
2013-09-24 11:53:00,-999.0,-99.9,29.80,South,180,2.0,2.5,-999,0.00,,,0.00,meteobridge,2013-09-24 08:53:00,
2013-09-24 11:58:00,-999.0,-99.9,29.77,ESE,112,1.3,3.6,-999,0.00,,,0.00,meteobridge,2013-09-24 08:58:00,
2013-09-24 12:03:00,-999.0,-99.9,29.77,SSE,158,1.6,6.0,-999,0.00,,,0.00,meteobridge,2013-09-24 09:03:00,
2013-09-24 12:08:00,-999.0,-99.9,29.77,ESE,112,4.3,4.3,-999,0.00,,,0.00,meteobridge,2013-09-24 09:08:00,
2013-09-24 12:13:00,-999.0,-99.9,29.77,North,0,2.0,4.0,-999,0.00,,,0.00,meteobridge,2013-09-24 09:13:00,
2013-09-24 12:19:00,-999.0,-99.9,29.77,SE,135,2.9,2.9,-999,0.00,,,0.00,meteobridge,2013-09-24 09:19:00,
2013-09-24 12:24:00,-999.0,-99.9,29.77,East,90,1.3,2.7,-999,0.00,,,0.00,meteobridge,2013-09-24 09:24:00,
2013-09-24 12:29:00,-999.0,-99.9,29.77,SSE,158,2.5,2.5,-999,0.00,,,0.00,meteobridge,2013-09-24 09:29:00,
2013-09-24 12:34:00,-999.0,-99.9,29.77,ENE,68,2.9,2.9,-999,0.00,,,0.00,meteobridge,2013-09-24 09:34:00,
2013-09-24 12:40:00,-999.0,-99.9,29.77,South,180,2.0,-999.0,-999,0.00,,,0.00,meteobridge,2013-09-24 09:40:00,
2013-09-24 12:46:00,-999.0,-99.9,29.77,SSW,202,2.9,3.8,-999,0.00,,,0.00,meteobridge,2013-09-24 09:46:00,
2013-09-24 12:51:00,-999.0,-99.9,29.77,North,0,1.3,3.4,-999,0.00,,,0.00,meteobridge,2013-09-24 09:51:00,
2013-09-24 12:56:00,-999.0,-99.9,29.77,NNW,338,2.0,4.0,-999,0.00,,,0.00,meteobridge,2013-09-24 09:56:00,
2013-09-24 13:01:00,-999.0,-99.9,29.77,North,0,3.6,3.6,-999,0.00,,,0.00,meteobridge,2013-09-24 10:01:00,
2013-09-24 13:07:00,-999.0,-99.9,29.77,NNW,338,1.3,2.9,-999,0.00,,,0.00,meteobridge,2013-09-24 10:07:00,
2013-09-24 13:13:00,-999.0,-99.9,29.77,North,0,3.8,3.8,-999,0.00,,,0.00,meteobridge,2013-09-24 10:13:00,
2013-09-24 13:18:00,-999.0,-99.9,29.77,ESE,112,2.0,3.4,-999,0.00,,,0.00,meteobridge,2013-09-24 10:18:00,
2013-09-24 13:23:00,-999.0,-99.9,29.77,South,180,1.6,2.0,-999,0.00,,,0.00,meteobridge,2013-09-24 10:23:00,
2013-09-24 13:28:00,-999.0,-99.9,29.74,WSW,248,2.9,4.3,-999,0.00,,,0.00,meteobridge,2013-09-24 10:28:00,
2013-09-24 13:33:00,-999.0,-99.9,29.74,East,90,2.0,4.7,-999,0.00,,,0.00,meteobridge,2013-09-24 10:33:00,
2013-09-24 13:38:00,-999.0,-99.9,29.74,SE,135,4.9,4.9,-999,0.00,,,0.00,meteobridge,2013-09-24 10:38:00,
2013-09-24 13:43:00,-999.0,-99.9,29.77,NNE,22,2.0,3.8,-999,0.00,,,0.00,meteobridge,2013-09-24 10:43:00,
2013-09-24 13:48:00,-999.0,-99.9,29.77,SSE,158,2.0,3.1,-999,0.00,,,0.00,meteobridge,2013-09-24 10:48:00,
2013-09-24 13:53:00,-999.0,-99.9,29.77,SW,225,1.1,3.1,-999,0.00,,,0.00,meteobridge,2013-09-24 10:53:00,
2013-09-24 13:58:00,-999.0,-99.9,29.77,NNW,338,2.5,3.1,-999,0.00,,,0.00,meteobridge,2013-09-24 10:58:00,
2013-09-24 14:03:00,-999.0,-99.9,29.77,ENE,68,1.6,2.7,-999,0.00,,,0.00,meteobridge,2013-09-24 11:03:00,
2013-09-24 14:08:00,-999.0,-99.9,29.77,ENE,68,1.6,3.4,-999,0.00,,,0.00,meteobridge,2013-09-24 11:08:00,
2013-09-24 14:13:00,-999.0,-99.9,29.74,WNW,292,2.2,4.0,-999,0.00,,,0.00,meteobridge,2013-09-24 11:13:00,
2013-09-24 14:18:00,-999.0,-99.9,29.74,NW,315,1.3,4.7,-999,0.00,,,0.00,meteobridge,2013-09-24 11:18:00,
2013-09-24 14:23:00,-999.0,-99.9,29.74,SW,225,3.1,4.0,-999,0.00,,,0.00,meteobridge,2013-09-24 11:23:00,
2013-09-24 14:28:00,-999.0,-99.9,29.77,WSW,248,2.5,3.1,-999,0.00,,,0.00,meteobridge,2013-09-24 11:28:00,
2013-09-24 14:33:00,-999.0,-99.9,29.77,SE,135,1.6,3.1,-999,0.00,,,0.00,meteobridge,2013-09-24 11:33:00,
2013-09-24 14:38:00,-999.0,-99.9,29.77,SE,135,4.0,5.8,-999,0.00,,,0.00,meteobridge,2013-09-24 11:38:00,
2013-09-24 14:43:00,-999.0,-99.9,29.77,South,180,2.9,3.1,-999,0.00,,,0.00,meteobridge,2013-09-24 11:43:00,
2013-09-24 14:49:00,-999.0,-99.9,29.77,NNW,338,2.9,2.9,-999,0.00,,,0.00,meteobridge,2013-09-24 11:49:00,
2013-09-24 14:54:00,-999.0,-99.9,29.77,SE,135,5.4,5.4,-999,0.00,,,0.00,meteobridge,2013-09-24 11:54:00,
2013-09-24 14:59:00,-999.0,-99.9,29.77,South,180,3.4,6.0,-999,0.00,,,0.00,meteobridge,2013-09-24 11:59:00,
2013-09-24 15:04:00,-999.0,-99.9,29.77,SSE,158,2.5,6.5,-999,0.00,,,0.00,meteobridge,2013-09-24 12:04:00,
2013-09-24 15:09:00,-999.0,-99.9,29.77,ESE,112,4.0,7.2,-999,0.00,,,0.00,meteobridge,2013-09-24 12:09:00,
2013-09-24 15:14:00,-999.0,-99.9,29.77,SSE,158,2.2,4.0,-999,0.00,,,0.00,meteobridge,2013-09-24 12:14:00,
2013-09-24 15:19:00,-999.0,-99.9,29.77,ENE,68,0.9,3.6,-999,0.00,,,0.00,meteobridge,2013-09-24 12:19:00,
2013-09-24 15:24:00,-999.0,-99.9,29.77,East,90,2.0,2.0,-999,0.00,,,0.00,meteobridge,2013-09-24 12:24:00,
2013-09-24 15:29:00,-999.0,-99.9,29.77,WNW,292,2.0,3.4,-999,0.00,,,0.00,meteobridge,2013-09-24 12:29:00,
2013-09-24 15:34:00,-999.0,-99.9,29.77,SW,225,1.6,3.1,-999,0.00,,,0.00,meteobridge,2013-09-24 12:34:00,
2013-09-24 15:40:00,-999.0,-99.9,29.77,SSE,158,4.3,4.3,-999,0.00,,,0.00,meteobridge,2013-09-24 12:40:00,
2013-09-24 15:45:00,-999.0,-99.9,29.80,West,270,2.5,2.9,-999,0.00,,,0.00,meteobridge,2013-09-24 12:45:00,
2013-09-24 15:50:00,-999.0,-99.9,29.80,ENE,68,2.5,3.6,-999,0.00,,,0.00,meteobridge,2013-09-24 12:50:00,
2013-09-24 15:56:00,-999.0,-99.9,29.80,South,180,3.1,5.4,-999,0.00,,,0.00,meteobridge,2013-09-24 12:56:00,
2013-09-24 16:01:00,-999.0,-99.9,29.77,South,180,2.9,3.6,-999,0.00,,,0.00,meteobridge,2013-09-24 13:01:00,
2013-09-24 16:06:00,-999.0,-99.9,29.77,ESE,112,3.1,6.3,-999,0.00,,,0.00,meteobridge,2013-09-24 13:06:00,
2013-09-24 16:11:00,-999.0,-99.9,29.77,SE,135,4.3,4.3,-999,0.00,,,0.00,meteobridge,2013-09-24 13:11:00,
2013-09-24 16:16:00,-999.0,-99.9,29.77,SSW,202,1.3,4.0,-999,0.00,,,0.00,meteobridge,2013-09-24 13:16:00,
2013-09-24 16:21:00,-999.0,-99.9,29.77,South,180,2.0,2.7,-999,0.00,,,0.00,meteobridge,2013-09-24 13:21:00,
2013-09-24 16:26:00,-999.0,-99.9,29.77,WSW,248,2.7,3.1,-999,0.00,,,0.00,meteobridge,2013-09-24 13:26:00,
2013-09-24 16:31:00,-999.0,-99.9,29.77,SSW,202,3.8,4.0,-999,0.00,,,0.00,meteobridge,2013-09-24 13:31:00,
2013-09-24 16:36:00,-999.0,-99.9,29.77,SE,135,3.1,5.4,-999,0.00,,,0.00,meteobridge,2013-09-24 13:36:00,
2013-09-24 16:41:00,-999.0,-99.9,29.77,SSE,158,2.2,6.5,-999,0.00,,,0.00,meteobridge,2013-09-24 13:41:00,
2013-09-24 16:46:00,-999.0,-99.9,29.77,SSE,158,2.7,2.9,-999,0.00,,,0.00,meteobridge,2013-09-24 13:46:00,
2013-09-24 16:52:00,-999.0,-99.9,29.77,SW,225,1.6,2.5,-999,0.00,,,0.00,meteobridge,2013-09-24 13:52:00,
2013-09-24 16:57:00,-999.0,-99.9,29.77,ESE,112,1.6,3.1,-999,0.00,,,0.00,meteobridge,2013-09-24 13:57:00,
2013-09-24 17:02:00,-999.0,-99.9,29.77,South,180,2.9,4.7,-999,0.00,,,0.00,meteobridge,2013-09-24 14:02:00,
2013-09-24 17:07:00,-999.0,-99.9,29.77,ESE,112,2.9,7.6,-999,0.00,,,0.00,meteobridge,2013-09-24 14:07:00,
2013-09-24 17:13:00,-999.0,-99.9,29.77,SSW,202,3.4,3.4,-999,0.00,,,0.00,meteobridge,2013-09-24 14:13:00,
2013-09-24 17:18:00,-999.0,-99.9,29.77,ESE,112,2.7,5.6,-999,0.00,,,0.00,meteobridge,2013-09-24 14:18:00,
2013-09-24 17:23:00,-999.0,-99.9,29.77,ESE,112,2.5,3.6,-999,0.00,,,0.00,meteobridge,2013-09-24 14:23:00,
2013-09-24 17:28:00,-999.0,-99.9,29.77,SE,135,1.6,4.0,-999,0.00,,,0.00,meteobridge,2013-09-24 14:28:00,
2013-09-24 17:33:00,-999.0,-99.9,29.77,ESE,112,5.6,8.1,-999,0.00,,,0.00,meteobridge,2013-09-24 14:33:00,
2013-09-24 17:38:00,-999.0,-99.9,29.77,SSE,158,1.6,4.0,-999,0.00,,,0.00,meteobridge,2013-09-24 14:38:00,
2013-09-24 17:44:00,-999.0,-99.9,29.77,SSE,158,2.9,2.9,-999,0.00,,,0.00,meteobridge,2013-09-24 14:44:00,
2013-09-24 17:49:00,-999.0,-99.9,29.77,SSE,158,3.1,7.2,-999,0.00,,,0.00,meteobridge,2013-09-24 14:49:00,
2013-09-24 17:54:00,-999.0,-99.9,29.77,East,90,2.7,4.0,-999,0.00,,,0.00,meteobridge,2013-09-24 14:54:00,
2013-09-24 18:00:00,-999.0,-99.9,29.77,East,90,2.7,4.9,-999,0.00,,,0.00,meteobridge,2013-09-24 15:00:00,
2013-09-24 18:05:00,-999.0,-99.9,29.77,SSW,202,3.4,3.4,-999,0.00,,,0.00,meteobridge,2013-09-24 15:05:00,
2013-09-24 18:10:00,-999.0,-99.9,29.77,SSW,202,3.1,3.1,-999,0.00,,,0.00,meteobridge,2013-09-24 15:10:00,
2013-09-24 18:15:00,-999.0,-99.9,29.77,ENE,68,1.6,3.4,-999,0.00,,,0.00,meteobridge,2013-09-24 15:15:00,
2013-09-24 18:21:00,-999.0,-99.9,29.77,West,270,4.5,4.5,-999,0.00,,,0.00,meteobridge,2013-09-24 15:21:00,
2013-09-24 18:26:00,-999.0,-99.9,29.77,NNE,22,2.5,2.7,-999,0.00,,,0.00,meteobridge,2013-09-24 15:26:00,
2013-09-24 18:31:00,-999.0,-99.9,29.77,West,270,3.6,3.6,-999,0.00,,,0.00,meteobridge,2013-09-24 15:31:00,
2013-09-24 18:36:00,-999.0,-99.9,29.77,SSE,158,3.8,3.8,-999,0.00,,,0.00,meteobridge,2013-09-24 15:36:00,
2013-09-24 18:41:00,-999.0,-99.9,29.77,SSE,158,2.9,4.9,-999,0.00,,,0.00,meteobridge,2013-09-24 15:41:00,
2013-09-24 18:47:00,-999.0,-99.9,29.77,SSE,158,2.7,2.7,-999,0.00,,,0.00,meteobridge,2013-09-24 15:47:00,
2013-09-24 18:52:00,-999.0,-99.9,29.77,NNW,338,1.1,2.5,-999,0.00,,,0.00,meteobridge,2013-09-24 15:52:00,
2013-09-24 18:57:00,-999.0,-99.9,29.77,WSW,248,3.4,3.4,-999,0.00,,,0.00,meteobridge,2013-09-24 15:57:00,
2013-09-24 19:02:00,-999.0,-99.9,29.77,SSW,202,2.2,3.6,-999,0.00,,,0.00,meteobridge,2013-09-24 16:02:00,
2013-09-24 19:07:00,-999.0,-99.9,29.77,NNW,338,1.6,2.9,-999,0.00,,,0.00,meteobridge,2013-09-24 16:07:00,
2013-09-24 19:12:00,-999.0,-99.9,29.77,NNE,22,2.7,3.8,-999,0.00,,,0.00,meteobridge,2013-09-24 16:12:00,
2013-09-24 19:17:00,-999.0,-99.9,29.77,West,270,1.6,1.6,-999,0.00,,,0.00,meteobridge,2013-09-24 16:17:00,
2013-09-24 19:23:00,-999.0,-99.9,29.77,South,180,1.3,2.9,-999,0.00,,,0.00,meteobridge,2013-09-24 16:23:00,
2013-09-24 19:28:00,-999.0,-99.9,29.77,East,90,2.0,2.2,-999,0.00,,,0.00,meteobridge,2013-09-24 16:28:00,
2013-09-24 19:34:00,-999.0,-99.9,29.74,NNW,338,1.1,1.3,-999,0.00,,,0.00,meteobridge,2013-09-24 16:34:00,
2013-09-24 19:40:00,-999.0,-99.9,29.74,ESE,112,2.5,2.9,-999,0.00,,,0.00,meteobridge,2013-09-24 16:40:00,
2013-09-24 19:45:00,-999.0,-99.9,29.77,North,0,0.0,2.2,-999,0.00,,,0.00,meteobridge,2013-09-24 16:45:00,
2013-09-24 19:51:00,-999.0,-99.9,29.77,South,180,0.9,-999.0,-999,0.00,,,0.00,meteobridge,2013-09-24 16:51:00,
2013-09-24 19:57:00,-999.0,-99.9,29.77,South,180,2.7,2.7,-999,0.00,,,0.00,meteobridge,2013-09-24 16:57:00,
2013-09-24 20:02:00,-999.0,-99.9,29.77,East,90,2.7,4.0,-999,0.00,,,0.00,meteobridge,2013-09-24 17:02:00,
2013-09-24 20:08:00,-999.0,-99.9,29.77,SSE,158,1.3,2.5,-999,0.00,,,0.00,meteobridge,2013-09-24 17:08:00,
2013-09-24 20:13:00,-999.0,-99.9,29.74,South,180,2.7,3.4,-999,0.00,,,0.00,meteobridge,2013-09-24 17:13:00,
2013-09-24 20:18:00,-999.0,-99.9,29.74,SE,135,2.5,3.1,-999,0.00,,,0.00,meteobridge,2013-09-24 17:18:00,
2013-09-24 20:23:00,-999.0,-99.9,29.74,NNW,338,3.4,3.4,-999,0.00,,,0.00,meteobridge,2013-09-24 17:23:00,
2013-09-24 20:28:00,-999.0,-99.9,29.77,SW,225,0.0,2.9,-999,0.00,,,0.00,meteobridge,2013-09-24 17:28:00,
2013-09-24 20:33:00,-999.0,-99.9,29.77,WSW,248,2.5,3.8,-999,0.00,,,0.00,meteobridge,2013-09-24 17:33:00,
2013-09-24 20:38:00,-999.0,-99.9,29.77,South,180,2.9,4.3,-999,0.00,,,0.00,meteobridge,2013-09-24 17:38:00,
2013-09-24 20:43:00,-999.0,-99.9,29.77,South,180,2.9,4.9,-999,0.00,,,0.00,meteobridge,2013-09-24 17:43:00,
2013-09-24 20:48:00,-999.0,-99.9,29.77,SE,135,0.0,2.0,-999,0.00,,,0.00,meteobridge,2013-09-24 17:48:00,
2013-09-24 20:53:00,-999.0,-99.9,29.77,SW,225,1.6,1.6,-999,0.00,,,0.00,meteobridge,2013-09-24 17:53:00,
2013-09-24 20:58:00,-999.0,-99.9,29.77,SSE,158,1.3,2.5,-999,0.00,,,0.00,meteobridge,2013-09-24 17:58:00,
2013-09-24 21:03:00,-999.0,-99.9,29.77,SW,225,0.0,3.8,-999,0.00,,,0.00,meteobridge,2013-09-24 18:03:00,
2013-09-24 21:08:00,-999.0,-99.9,29.77,North,0,2.0,3.1,-999,0.00,,,0.00,meteobridge,2013-09-24 18:08:00,
2013-09-24 21:13:00,-999.0,-99.9,29.77,SSW,202,3.1,4.3,-999,0.00,,,0.00,meteobridge,2013-09-24 18:13:00,
2013-09-24 21:18:00,-999.0,-99.9,29.77,SW,225,3.1,4.7,-999,0.00,,,0.00,meteobridge,2013-09-24 18:18:00,
2013-09-24 21:23:00,-999.0,-99.9,29.77,SSE,158,1.1,2.5,-999,0.00,,,0.00,meteobridge,2013-09-24 18:23:00,
2013-09-24 21:28:00,-999.0,-99.9,29.77,South,180,3.8,3.8,-999,0.00,,,0.00,meteobridge,2013-09-24 18:28:00,
2013-09-24 21:34:00,-999.0,-99.9,29.77,South,180,0.0,1.1,-999,0.00,,,0.00,meteobridge,2013-09-24 18:34:00,
2013-09-24 21:39:00,-999.0,-99.9,29.77,SSE,158,3.8,4.9,-999,0.00,,,0.00,meteobridge,2013-09-24 18:39:00,
2013-09-24 21:44:00,-999.0,-99.9,29.80,WSW,248,1.1,2.9,-999,0.00,,,0.00,meteobridge,2013-09-24 18:44:00,
2013-09-24 21:49:00,-999.0,-99.9,29.80,WSW,248,0.0,3.4,-999,0.00,,,0.00,meteobridge,2013-09-24 18:49:00,
2013-09-24 21:54:00,-999.0,-99.9,29.80,SW,225,2.2,2.2,-999,0.00,,,0.00,meteobridge,2013-09-24 18:54:00,
2013-09-24 21:59:00,-999.0,-99.9,29.80,SE,135,0.0,1.1,-999,0.00,,,0.00,meteobridge,2013-09-24 18:59:00,
2013-09-24 22:06:00,-999.0,-99.9,29.80,NNW,338,1.1,-999.0,-999,0.00,,,0.00,meteobridge,2013-09-24 19:06:00,
2013-09-24 22:11:00,-999.0,-99.9,29.80,North,0,0.0,1.3,-999,0.00,,,0.00,meteobridge,2013-09-24 19:11:00,
2013-09-24 22:16:00,-999.0,-99.9,29.80,North,0,2.5,2.7,-999,0.00,,,0.00,meteobridge,2013-09-24 19:16:00,
2013-09-24 22:21:00,-999.0,-99.9,29.80,ENE,68,0.9,0.9,-999,0.00,,,0.00,meteobridge,2013-09-24 19:21:00,
2013-09-24 22:26:00,-999.0,-99.9,29.80,NNE,22,0.0,0.0,-999,0.00,,,0.00,meteobridge,2013-09-24 19:26:00,
2013-09-24 22:31:00,-999.0,-99.9,29.80,North,0,1.1,1.1,-999,0.00,,,0.00,meteobridge,2013-09-24 19:31:00,
2013-09-24 22:37:00,-999.0,-99.9,29.80,North,0,0.0,0.0,-999,0.00,,,0.00,meteobridge,2013-09-24 19:37:00,
2013-09-24 22:42:00,-999.0,-99.9,29.80,NNE,22,0.0,0.0,-999,0.00,,,0.00,meteobridge,2013-09-24 19:42:00,
2013-09-24 22:47:00,-999.0,-99.9,29.80,NNE,22,1.3,1.6,-999,0.00,,,0.00,meteobridge,2013-09-24 19:47:00,
2013-09-24 22:52:00,-999.0,-99.9,29.80,NNE,22,0.9,1.3,-999,0.00,,,0.00,meteobridge,2013-09-24 19:52:00,
2013-09-24 22:57:00,-999.0,-99.9,29.80,NNE,22,1.3,2.0,-999,0.00,,,0.00,meteobridge,2013-09-24 19:57:00,
2013-09-24 23:02:00,-999.0,-99.9,29.80,North,0,1.3,1.6,-999,0.00,,,0.00,meteobridge,2013-09-24 20:02:00,
2013-09-24 23:07:00,-999.0,-99.9,29.80,North,0,1.6,1.6,-999,0.00,,,0.00,meteobridge,2013-09-24 20:07:00,
2013-09-24 23:12:00,-999.0,-99.9,29.80,North,0,2.0,2.0,-999,0.00,,,0.00,meteobridge,2013-09-24 20:12:00,
2013-09-24 23:17:00,-999.0,-99.9,29.80,North,0,1.6,2.0,-999,0.00,,,0.00,meteobridge,2013-09-24 20:17:00,
2013-09-24 23:22:00,-999.0,-99.9,29.80,NNE,22,0.0,0.9,-999,0.00,,,0.00,meteobridge,2013-09-24 20:22:00,
2013-09-24 23:27:00,-999.0,-99.9,29.80,NNE,22,0.0,0.0,-999,0.00,,,0.00,meteobridge,2013-09-24 20:27:00,
2013-09-24 23:32:00,-999.0,-99.9,29.80,NNE,22,0.0,0.0,-999,0.00,,,0.00,meteobridge,2013-09-24 20:32:00,
2013-09-24 23:37:00,-999.0,-99.9,29.80,NNE,22,0.0,0.0,-999,0.00,,,0.00,meteobridge,2013-09-24 20:37:00,
2013-09-24 23:42:00,-999.0,-99.9,29.80,NNE,22,0.0,0.0,-999,0.00,,,0.00,meteobridge,2013-09-24 20:42:00,
2013-09-24 23:47:00,-999.0,-99.9,29.80,NNE,22,0.0,0.0,-999,0.00,,,0.00,meteobridge,2013-09-24 20:47:00,
2013-09-24 23:52:00,-999.0,-99.9,29.80,NNE,22,1.3,2.0,-999,0.00,,,0.00,meteobridge,2013-09-24 20:52:00,
2013-09-24 23:57:00,-999.0,-99.9,29.80,NNE,22,0.0,0.0,-999,0.00,,,0.00,meteobridge,2013-09-24 20:57:00,